CZ-6A DEB, 56624

Orbit data source: Space-Track

CZ-6A DEB, 56624 is space debris in SSO originally from a launch on Fri, 11 Nov 2022 UTC launched from the Taiyaun Space Center, China (TSC). Debris objects in space refer to the collection of defunct objects orbiting the Earth. Examples of debris include non-operational satellites, rocket bodies, and fragments generated from explosions, collisions, or faulty payload assembly.

Loading next visibility...
Identifier
56624, 2022-151AEY
Orbit
SSO
Country
Flag of CNCN / PRC
Related business
Manufacturer
SAST
Mission
Spacecraft
Bus & Motor
Unknown
Mass
Unknown
Launch date (UTC)
2022-11-11 (3 years ago)
Launch vehicle
Unknown
Launch site
Taiyaun Space Center, China (TSC)
Object type
Payload
Rocket body
Debris
Shape & HBR
Unknown shape, 0.1 m
Radar Cross Section
Small (<0.1 m²)

Expand to show TLE details & history
Last TLE update: 1 day ago

TLE from 1 day ago
0 CZ-6A DEB
1 56624U 22151AEY 25349.28758706  .00000352  00000-0  22027-3 0  9996
2 56624  98.8463 350.0664 0045050 142.6338 217.7981 14.10373322141050
Epoch: 2025-12-15T06:54Z
TLE epoch observation values (Epoch: 2025-12-15T06:54:07.521Z)
Latitude
0.00003°
Longitude
162.34675°
Altitude
886.811 km
Speed
7.396 km/s
True Right ascension
23h 20m 15s
True Declination
0° 00' 00"
Sunlit
Object was in daylight at epoch
Visualization orbit readout
Latitude
Unknown
Longitude
Unknown
Altitude
Unknown
Speed
Unknown
Apparent Right ascension
Unknown
Apparent Declination
Unknown
Sunlit
N/A
Visualization observer readout
Local Sidereal Time
13:39:55
Azimuth
Unknown
Elevation
Unknown
Doppler factor
Unknown
Orbital elements
Apogee altitude
887.859 km
Perigee altitude
822.686 km
Semi-major axis
7,233.409 km
Eccentricity
0.00451
Inclination
98.8463°
RAAN
350.0664°
Arg. of periapsis
142.6338°
True anomaly
217.48311°
Mean anomaly
217.7981°
Eccentric anomaly
217.64047°
Mean motion
3.528 °/min
Orbital period
102.04 mins
BSTAR
0.00022027
Loading maneuver chart data...
Computing Atmospheric mass density...
Loading historical data...
Loading historical data...
Loading historical data...
Loading historical data...
Loading historical data...
Loading historical data...
Loading historical data...

Documentation

Showing up to 5 results
|